Location: Ballingbuur
(53.0000°N, 5.7667°E)
Time: 08:17:55
(UTC+00:00)

Cosmos 1356 - Pass Details

Date: 21 April 2021
Orbit: 438 x 442 km, 81.1° (Epoch: 17 May)

Event Time Altitude Azimuth Distance (km) Brightness Sun altitude
Rises 20:37:02 0° 333° (NNW) 2,451 8.6 -14.5°
Reaches altitude 10° 20:39:34 10° 314° (NW) 1,573 7.6 -14.8°
Maximum altitude 20:41:55 18° 270° (W) 1,184 6.1 -15.0°
Drops below altitude 10° 20:44:14 10° 227° (SW) 1,562 6.1 -15.3°
Enters shadow 20:46:24 - 209° (SSW) 2,288 6.8 -15.5°
